Time,TemperatureF,DewpointF,PressureIn,WindDirection,WindDirectionDegrees,WindSpeedMPH,WindSpeedGustMPH,Humidity,HourlyPrecipIn,Conditions,Clouds,dailyrainin,SoftwareType,DateUTC
2013-05-01 00:02:00,27.1,22.9,29.61,NE,45,0.0,0.0,84,0.00,CLR,,0.00,WeatherDisplay:10.37,2013-05-01 06:02:00,
2013-05-01 00:07:00,27.0,22.8,29.61,East,90,0.0,0.0,84,0.00,CLR,,0.00,WeatherDisplay:10.37,2013-05-01 06:07:00,
2013-05-01 00:12:00,27.1,22.9,29.61,ESE,112,0.0,0.0,84,0.00,CLR,,0.00,WeatherDisplay:10.37,2013-05-01 06:12:00,
2013-05-01 00:17:00,27.1,22.9,29.62,ESE,112,0.0,0.0,84,0.00,CLR,,0.00,WeatherDisplay:10.37,2013-05-01 06:17:00,
2013-05-01 00:22:00,27.5,23.3,29.62,East,90,0.0,0.0,84,0.00,CLR,,0.00,WeatherDisplay:10.37,2013-05-01 06:22:00,
2013-05-01 00:27:00,27.5,23.3,29.62,East,90,0.0,0.0,84,0.00,CLR,,0.00,WeatherDisplay:10.37,2013-05-01 06:27:00,
2013-05-01 00:32:00,27.3,23.1,29.62,East,90,0.0,0.0,84,0.00,CLR,,0.00,WeatherDisplay:10.37,2013-05-01 06:32:00,
2013-05-01 00:37:00,27.5,23.3,29.62,ESE,112,0.0,0.0,84,0.00,CLR,,0.00,WeatherDisplay:10.37,2013-05-01 06:37:00,
2013-05-01 00:42:00,27.5,23.3,29.62,East,90,0.0,0.0,84,0.00,CLR,,0.00,WeatherDisplay:10.37,2013-05-01 06:42:00,
2013-05-01 00:47:00,27.1,22.7,29.62,ENE,68,0.0,0.0,83,0.00,CLR,,0.00,WeatherDisplay:10.37,2013-05-01 06:47:00,
2013-05-01 00:52:00,27.1,22.7,29.62,SE,135,0.0,0.0,83,0.00,CLR,,0.00,WeatherDisplay:10.37,2013-05-01 06:52:00,
2013-05-01 00:57:00,27.0,22.5,29.63,East,90,0.0,0.0,83,0.00,CLR,,0.00,WeatherDisplay:10.37,2013-05-01 06:57:00,
2013-05-01 01:02:00,27.0,22.5,29.63,East,90,0.0,0.0,83,0.00,CLR,,0.00,WeatherDisplay:10.37,2013-05-01 07:02:00,
2013-05-01 01:07:00,27.0,22.5,29.63,East,90,0.0,0.0,83,0.00,CLR,,0.00,WeatherDisplay:10.37,2013-05-01 07:07:00,
2013-05-01 01:12:00,26.8,22.3,29.63,South,180,0.0,0.0,83,0.00,CLR,,0.00,WeatherDisplay:10.37,2013-05-01 07:12:00,
2013-05-01 01:17:00,26.8,22.3,29.64,East,90,0.0,0.0,83,0.00,CLR,,0.00,WeatherDisplay:10.37,2013-05-01 07:17:00,
2013-05-01 01:22:00,26.8,22.3,29.64,ESE,112,0.0,0.0,83,0.00,CLR,,0.00,WeatherDisplay:10.37,2013-05-01 07:22:00,
2013-05-01 01:27:00,26.8,22.3,29.64,East,90,0.0,0.0,83,0.00,CLR,,0.00,WeatherDisplay:10.37,2013-05-01 07:27:00,
2013-05-01 01:32:00,26.4,21.7,29.64,SSW,202,0.0,0.0,82,0.00,CLR,,0.00,WeatherDisplay:10.37,2013-05-01 07:32:00,
2013-05-01 01:37:00,26.8,22.0,29.65,SSW,202,0.0,0.0,82,0.00,CLR,,0.00,WeatherDisplay:10.37,2013-05-01 07:37:00,
2013-05-01 01:42:00,26.8,22.0,29.65,South,180,0.0,0.0,82,0.00,CLR,,0.00,WeatherDisplay:10.37,2013-05-01 07:42:00,
2013-05-01 01:47:00,26.8,22.0,29.65,East,90,0.0,0.0,82,0.00,CLR,,0.00,WeatherDisplay:10.37,2013-05-01 07:47:00,
2013-05-01 01:52:00,26.4,21.7,29.65,East,90,0.0,0.0,82,0.00,CLR,,0.00,WeatherDisplay:10.37,2013-05-01 07:52:00,
2013-05-01 01:57:00,26.4,21.7,29.65,East,90,0.0,0.0,82,0.00,CLR,,0.00,WeatherDisplay:10.37,2013-05-01 07:57:00,
2013-05-01 02:02:00,26.4,21.7,29.65,East,90,0.0,0.0,82,0.00,CLR,,0.00,WeatherDisplay:10.37,2013-05-01 08:02:00,
2013-05-01 02:07:00,26.4,21.7,29.65,East,90,0.0,0.0,82,0.00,CLR,,0.00,WeatherDisplay:10.37,2013-05-01 08:07:00,
2013-05-01 02:12:00,26.4,21.7,29.65,East,90,0.0,0.0,82,0.00,CLR,,0.00,WeatherDisplay:10.37,2013-05-01 08:12:00,
2013-05-01 02:17:00,26.4,21.7,29.65,East,90,0.0,0.0,82,0.00,CLR,,0.00,WeatherDisplay:10.37,2013-05-01 08:17:00,
2013-05-01 02:22:00,26.2,21.5,29.65,East,90,0.0,0.0,82,0.00,CLR,,0.00,WeatherDisplay:10.37,2013-05-01 08:22:00,
2013-05-01 02:27:00,26.2,21.5,29.65,SSE,158,0.0,0.0,82,0.00,CLR,,0.00,WeatherDisplay:10.37,2013-05-01 08:27:00,
2013-05-01 02:32:00,26.4,21.7,29.65,SSW,202,0.0,0.0,82,0.00,CLR,,0.00,WeatherDisplay:10.37,2013-05-01 08:32:00,
2013-05-01 02:37:00,26.4,21.7,29.66,SSW,202,0.0,0.0,82,0.00,CLR,,0.00,WeatherDisplay:10.37,2013-05-01 08:37:00,
2013-05-01 02:42:00,26.4,21.7,29.66,ENE,68,0.0,0.0,82,0.00,CLR,,0.00,WeatherDisplay:10.37,2013-05-01 08:42:00,
2013-05-01 02:47:00,26.8,22.0,29.66,ENE,68,0.0,0.0,82,0.00,CLR,,0.00,WeatherDisplay:10.37,2013-05-01 08:47:00,
2013-05-01 02:52:00,26.8,22.0,29.66,ENE,68,0.0,0.0,82,0.00,CLR,,0.00,WeatherDisplay:10.37,2013-05-01 08:52:00,
2013-05-01 02:57:00,26.8,22.0,29.66,ENE,68,0.0,0.0,82,0.00,CLR,,0.00,WeatherDisplay:10.37,2013-05-01 08:57:00,
2013-05-01 03:02:00,26.8,22.0,29.66,East,90,0.0,0.0,82,0.00,CLR,,0.00,WeatherDisplay:10.37,2013-05-01 09:02:00,
2013-05-01 03:07:00,26.8,22.0,29.66,East,90,0.0,0.0,82,0.00,CLR,,0.00,WeatherDisplay:10.37,2013-05-01 09:07:00,
2013-05-01 03:12:00,26.8,22.0,29.66,SSE,158,0.0,0.0,82,0.00,CLR,,0.00,WeatherDisplay:10.37,2013-05-01 09:12:00,
2013-05-01 03:17:00,26.8,22.0,29.67,SSW,202,0.0,0.0,82,0.00,CLR,,0.00,WeatherDisplay:10.37,2013-05-01 09:17:00,
2013-05-01 03:22:00,27.1,22.4,29.67,SSW,202,0.0,0.0,82,0.00,CLR,,0.00,WeatherDisplay:10.37,2013-05-01 09:22:00,
2013-05-01 03:27:00,27.0,22.2,29.67,NE,45,0.0,0.0,82,0.00,CLR,,0.00,WeatherDisplay:10.37,2013-05-01 09:27:00,
2013-05-01 03:32:00,27.1,22.4,29.67,NE,45,0.0,0.0,82,0.00,CLR,,0.00,WeatherDisplay:10.37,2013-05-01 09:32:00,
2013-05-01 03:37:00,27.0,22.2,29.67,NE,45,0.0,0.0,82,0.00,CLR,,0.00,WeatherDisplay:10.37,2013-05-01 09:37:00,
2013-05-01 03:42:00,27.0,22.2,29.67,NE,45,0.0,0.0,82,0.00,CLR,,0.00,WeatherDisplay:10.37,2013-05-01 09:42:00,
2013-05-01 03:47:00,26.8,22.0,29.67,NE,45,0.0,0.0,82,0.00,CLR,,0.00,WeatherDisplay:10.37,2013-05-01 09:47:00,
2013-05-01 03:52:00,26.4,21.4,29.67,NE,45,0.0,0.0,81,0.00,CLR,,0.00,WeatherDisplay:10.37,2013-05-01 09:52:00,
2013-05-01 03:57:00,26.1,21.0,29.68,ENE,68,0.0,0.0,81,0.00,CLR,,0.00,WeatherDisplay:10.37,2013-05-01 09:57:00,
2013-05-01 04:02:00,25.5,20.5,29.68,East,90,0.0,0.0,81,0.00,CLR,,0.00,WeatherDisplay:10.37,2013-05-01 10:02:00,
2013-05-01 04:07:00,25.3,20.3,29.68,East,90,0.0,0.0,81,0.00,CLR,,0.00,WeatherDisplay:10.37,2013-05-01 10:07:00,
2013-05-01 04:12:00,24.8,19.8,29.68,SSE,158,0.0,0.0,81,0.00,CLR,,0.00,WeatherDisplay:10.37,2013-05-01 10:12:00,
2013-05-01 04:17:00,24.6,19.6,29.69,SSE,158,0.0,0.0,81,0.00,CLR,,0.00,WeatherDisplay:10.37,2013-05-01 10:17:00,
2013-05-01 04:22:00,24.3,19.3,29.69,East,90,0.0,0.0,81,0.00,CLR,,0.00,WeatherDisplay:10.37,2013-05-01 10:22:00,
2013-05-01 04:27:00,23.7,18.7,29.69,ESE,112,0.0,0.0,81,0.00,CLR,,0.00,WeatherDisplay:10.37,2013-05-01 10:27:00,
2013-05-01 04:32:00,23.5,18.6,29.69,East,90,0.0,0.0,81,0.00,CLR,,0.00,WeatherDisplay:10.37,2013-05-01 10:32:00,
2013-05-01 04:37:00,23.2,18.2,29.69,ESE,112,0.0,0.0,81,0.00,CLR,,0.00,WeatherDisplay:10.37,2013-05-01 10:37:00,
2013-05-01 04:42:00,23.2,18.2,29.69,ENE,68,0.0,0.0,81,0.00,CLR,,0.00,WeatherDisplay:10.37,2013-05-01 10:42:00,
2013-05-01 04:47:00,22.8,17.9,29.69,ENE,68,0.0,0.0,81,0.00,CLR,,0.00,WeatherDisplay:10.37,2013-05-01 10:47:00,
2013-05-01 04:52:00,22.5,17.2,29.69,ENE,68,0.0,0.0,80,0.00,CLR,,0.00,WeatherDisplay:10.37,2013-05-01 10:52:00,
2013-05-01 04:57:00,22.5,17.2,29.70,ENE,68,0.0,0.0,80,0.00,CLR,,0.00,WeatherDisplay:10.37,2013-05-01 10:57:00,
2013-05-01 05:02:00,21.9,16.7,29.70,ENE,68,0.0,0.0,80,0.00,CLR,,0.00,WeatherDisplay:10.37,2013-05-01 11:02:00,
2013-05-01 05:07:00,21.7,16.5,29.70,ENE,68,0.0,0.0,80,0.00,CLR,,0.00,WeatherDisplay:10.37,2013-05-01 11:07:00,
2013-05-01 05:12:00,21.7,16.5,29.70,East,90,0.0,0.0,80,0.00,CLR,,0.00,WeatherDisplay:10.37,2013-05-01 11:12:00,
2013-05-01 05:17:00,21.4,16.2,29.71,ENE,68,0.0,0.0,80,0.00,CLR,,0.00,WeatherDisplay:10.37,2013-05-01 11:17:00,
2013-05-01 05:22:00,21.0,15.8,29.71,ENE,68,0.0,0.0,80,0.00,CLR,,0.00,WeatherDisplay:10.37,2013-05-01 11:22:00,
2013-05-01 05:27:00,21.0,15.8,29.71,ENE,68,0.0,0.0,80,0.00,CLR,,0.00,WeatherDisplay:10.37,2013-05-01 11:27:00,
2013-05-01 05:32:00,20.7,15.5,29.71,ESE,112,0.0,0.0,80,0.00,CLR,,0.00,WeatherDisplay:10.37,2013-05-01 11:32:00,
2013-05-01 05:37:00,20.5,15.3,29.72,ENE,68,0.0,0.0,80,0.00,CLR,,0.00,WeatherDisplay:10.37,2013-05-01 11:37:00,
2013-05-01 05:42:00,20.3,15.1,29.72,North,0,0.0,0.0,80,0.00,CLR,,0.00,WeatherDisplay:10.37,2013-05-01 11:42:00,
2013-05-01 05:47:00,20.3,15.1,29.72,North,0,0.0,0.0,80,0.00,CLR,,0.00,WeatherDisplay:10.37,2013-05-01 11:47:00,
2013-05-01 05:52:00,20.3,15.1,29.72,NE,45,0.0,0.0,80,0.00,CLR,,0.00,WeatherDisplay:10.37,2013-05-01 11:52:00,
2013-05-01 05:57:00,20.3,15.1,29.73,SSE,158,0.0,0.0,80,0.00,CLR,,0.00,WeatherDisplay:10.37,2013-05-01 11:57:00,
2013-05-01 06:02:00,20.1,14.9,29.73,North,0,0.0,0.0,80,0.00,CLR,,0.00,WeatherDisplay:10.37,2013-05-01 12:02:00,
2013-05-01 06:07:00,20.1,14.9,29.73,North,0,0.0,0.0,80,0.00,CLR,,0.00,WeatherDisplay:10.37,2013-05-01 12:07:00,
2013-05-01 06:12:00,20.3,15.1,29.73,SE,135,0.0,0.0,80,0.00,CLR,,0.00,WeatherDisplay:10.37,2013-05-01 12:12:00,
2013-05-01 06:17:00,20.3,15.1,29.74,North,0,0.0,0.0,80,0.00,CLR,,0.00,WeatherDisplay:10.37,2013-05-01 12:17:00,
2013-05-01 06:22:00,20.3,15.1,29.74,South,180,0.0,0.0,80,0.00,CLR,,0.00,WeatherDisplay:10.37,2013-05-01 12:22:00,
2013-05-01 06:27:00,20.3,15.1,29.74,NNE,22,0.0,0.0,80,0.00,CLR,,0.00,WeatherDisplay:10.37,2013-05-01 12:27:00,
2013-05-01 06:32:00,20.7,15.5,29.74,NNE,22,0.0,0.0,80,0.00,CLR,,0.00,WeatherDisplay:10.37,2013-05-01 12:32:00,
2013-05-01 06:37:00,20.7,15.5,29.75,SE,135,0.0,0.0,80,0.00,CLR,,0.00,WeatherDisplay:10.37,2013-05-01 12:37:00,
2013-05-01 06:42:00,21.0,15.8,29.75,SSE,158,0.0,0.0,80,0.00,CLR,,0.00,WeatherDisplay:10.37,2013-05-01 12:42:00,
2013-05-01 06:47:00,21.0,15.8,29.75,SSE,158,0.0,0.0,80,0.00,CLR,,0.00,WeatherDisplay:10.37,2013-05-01 12:47:00,
2013-05-01 06:52:00,21.0,15.8,29.75,SSE,158,0.0,0.0,80,0.00,CLR,,0.00,WeatherDisplay:10.37,2013-05-01 12:52:00,
2013-05-01 06:57:00,21.4,16.2,29.75,SSE,158,0.0,0.0,80,0.00,CLR,,0.00,WeatherDisplay:10.37,2013-05-01 12:57:00,
2013-05-01 07:02:00,21.7,16.5,29.75,ESE,112,0.0,0.0,80,0.00,CLR,,0.00,WeatherDisplay:10.37,2013-05-01 13:02:00,
2013-05-01 07:07:00,21.7,16.5,29.75,East,90,0.0,0.0,80,0.00,CLR,,0.00,WeatherDisplay:10.37,2013-05-01 13:07:00,
2013-05-01 07:12:00,21.7,16.5,29.75,SSW,202,0.0,0.0,80,0.00,CLR,,0.00,WeatherDisplay:10.37,2013-05-01 13:12:00,
2013-05-01 07:17:00,21.7,16.5,29.76,NNW,338,0.0,0.0,80,0.00,CLR,,0.00,WeatherDisplay:10.37,2013-05-01 13:17:00,
2013-05-01 07:22:00,21.9,16.7,29.76,NE,45,0.0,0.0,80,0.00,CLR,,0.00,WeatherDisplay:10.37,2013-05-01 13:22:00,
2013-05-01 07:27:00,22.5,17.2,29.76,NE,45,0.0,0.0,80,0.00,CLR,,0.00,WeatherDisplay:10.37,2013-05-01 13:27:00,
2013-05-01 07:32:00,22.6,17.4,29.76,North,0,0.0,0.0,80,0.00,CLR,,0.00,WeatherDisplay:10.37,2013-05-01 13:32:00,
2013-05-01 07:37:00,23.2,17.9,29.77,North,0,0.0,0.0,80,0.00,CLR,,0.00,WeatherDisplay:10.37,2013-05-01 13:37:00,
2013-05-01 07:42:00,23.9,18.6,29.77,North,0,0.0,0.0,80,0.00,CLR,,0.00,WeatherDisplay:10.37,2013-05-01 13:42:00,
2013-05-01 07:47:00,24.6,19.3,29.77,North,0,0.0,0.0,80,0.00,CLR,,0.00,WeatherDisplay:10.37,2013-05-01 13:47:00,
2013-05-01 07:52:00,25.0,19.7,29.77,SSW,202,0.0,0.0,80,0.00,CLR,,0.00,WeatherDisplay:10.37,2013-05-01 13:52:00,
2013-05-01 07:57:00,25.5,20.2,29.77,SSW,202,0.0,0.0,80,0.00,CLR,,0.00,WeatherDisplay:10.37,2013-05-01 13:57:00,
2013-05-01 08:02:00,26.1,20.7,29.77,SW,225,0.0,0.0,80,0.00,CLR,,0.00,WeatherDisplay:10.37,2013-05-01 14:02:00,
2013-05-01 08:07:00,26.1,20.7,29.77,WSW,248,0.0,0.0,80,0.00,CLR,,0.00,WeatherDisplay:10.37,2013-05-01 14:07:00,
2013-05-01 08:12:00,26.2,20.9,29.77,SW,225,0.0,0.0,80,0.00,CLR,,0.00,WeatherDisplay:10.37,2013-05-01 14:12:00,
2013-05-01 08:17:00,26.4,21.1,29.78,WSW,248,0.0,0.0,80,0.00,CLR,,0.00,WeatherDisplay:10.37,2013-05-01 14:17:00,
2013-05-01 08:22:00,26.2,20.9,29.78,SSW,202,0.0,0.0,80,0.00,CLR,,0.00,WeatherDisplay:10.37,2013-05-01 14:22:00,
2013-05-01 08:27:00,26.1,20.7,29.78,WSW,248,0.0,0.0,80,0.00,CLR,,0.00,WeatherDisplay:10.37,2013-05-01 14:27:00,
2013-05-01 08:32:00,25.7,20.1,29.78,WSW,248,0.0,0.0,79,0.00,CLR,,0.00,WeatherDisplay:10.37,2013-05-01 14:32:00,
2013-05-01 08:37:00,25.7,20.1,29.79,WSW,248,0.0,0.0,79,0.00,CLR,,0.00,WeatherDisplay:10.37,2013-05-01 14:37:00,
2013-05-01 08:43:00,25.7,20.1,29.79,West,270,0.0,0.0,79,0.00,CLR,,0.00,WeatherDisplay:10.37,2013-05-01 14:43:00,
2013-05-01 08:48:00,25.3,19.7,29.79,NNW,338,0.0,0.0,79,0.00,CLR,,0.00,WeatherDisplay:10.37,2013-05-01 14:48:00,
2013-05-01 08:53:00,25.5,19.9,29.79,WNW,292,0.0,0.0,79,0.00,CLR,,0.00,WeatherDisplay:10.37,2013-05-01 14:53:00,
2013-05-01 08:58:00,25.7,20.1,29.83,NW,315,0.0,0.0,79,0.00,CLR,,0.00,WeatherDisplay:10.37,2013-05-01 14:58:00,
2013-05-01 09:03:00,25.7,20.4,29.83,WNW,292,0.0,0.0,80,0.00,CLR,,0.00,WeatherDisplay:10.37,2013-05-01 15:03:00,
2013-05-01 09:08:00,26.1,20.7,29.83,WNW,292,0.0,0.0,80,0.00,CLR,,0.00,WeatherDisplay:10.37,2013-05-01 15:08:00,
2013-05-01 09:13:00,26.2,20.9,29.83,NW,315,0.0,0.0,80,0.00,CLR,,0.00,WeatherDisplay:10.37,2013-05-01 15:13:00,
2013-05-01 09:18:00,26.8,21.4,29.86,NW,315,0.0,0.0,80,0.00,CLR,,0.00,WeatherDisplay:10.37,2013-05-01 15:18:00,
2013-05-01 09:23:00,27.1,21.8,29.86,NW,315,0.0,0.0,80,0.00,CLR,,0.00,WeatherDisplay:10.37,2013-05-01 15:23:00,
2013-05-01 09:28:00,27.5,22.1,29.86,WNW,292,0.0,0.0,80,0.00,CLR,,0.00,WeatherDisplay:10.37,2013-05-01 15:28:00,
2013-05-01 09:33:00,28.2,22.8,29.86,NW,315,0.0,0.0,80,0.00,CLR,,0.00,WeatherDisplay:10.37,2013-05-01 15:33:00,
2013-05-01 09:38:00,28.9,23.5,29.86,NW,315,0.0,0.0,80,0.00,CLR,,0.00,WeatherDisplay:10.37,2013-05-01 15:38:00,
2013-05-01 09:43:00,29.7,24.2,29.86,SW,225,0.0,0.0,80,0.00,CLR,,0.00,WeatherDisplay:10.37,2013-05-01 15:43:00,
2013-05-01 09:48:00,30.4,24.6,29.86,NW,315,0.0,0.0,79,0.00,CLR,,0.00,WeatherDisplay:10.37,2013-05-01 15:48:00,
2013-05-01 09:53:00,30.7,25.0,29.86,NW,315,0.0,0.0,79,0.00,CLR,,0.00,WeatherDisplay:10.37,2013-05-01 15:53:00,
2013-05-01 09:58:00,31.5,25.7,29.86,WSW,248,0.0,0.0,79,0.00,CLR,,0.00,WeatherDisplay:10.37,2013-05-01 15:58:00,
2013-05-01 10:03:00,32.5,26.4,29.86,NW,315,0.0,0.0,78,0.00,CLR,,0.00,WeatherDisplay:10.37,2013-05-01 16:03:00,
2013-05-01 10:08:00,34.2,28.0,29.86,West,270,0.0,0.0,78,0.00,CLR,,0.00,WeatherDisplay:10.37,2013-05-01 16:08:00,
2013-05-01 10:13:00,35.4,29.2,29.86,NE,45,0.0,0.0,78,0.00,CLR,,0.00,WeatherDisplay:10.37,2013-05-01 16:13:00,
2013-05-01 10:18:00,36.7,30.5,29.87,North,0,0.0,0.2,78,0.00,CLR,,0.00,WeatherDisplay:10.37,2013-05-01 16:18:00,
2013-05-01 10:23:00,37.2,31.0,29.87,East,90,2.3,2.3,78,0.00,CLR,,0.00,WeatherDisplay:10.37,2013-05-01 16:23:00,
2013-05-01 10:28:00,37.8,31.2,29.87,North,0,4.6,4.6,77,0.00,CLR,,0.00,WeatherDisplay:10.37,2013-05-01 16:28:00,
2013-05-01 10:33:00,37.9,31.0,29.87,West,270,0.0,1.0,76,0.00,CLR,,0.00,WeatherDisplay:10.37,2013-05-01 16:33:00,
2013-05-01 10:38:00,38.3,30.7,29.88,NNW,338,0.0,0.1,74,0.00,CLR,,0.00,WeatherDisplay:10.37,2013-05-01 16:38:00,
2013-05-01 10:43:00,38.7,30.7,29.88,WSW,248,0.0,0.0,73,0.00,CLR,,0.00,WeatherDisplay:10.37,2013-05-01 16:43:00,
2013-05-01 10:48:00,39.2,30.6,29.88,SW,225,0.0,0.0,71,0.00,CLR,,0.00,WeatherDisplay:10.37,2013-05-01 16:48:00,
2013-05-01 10:53:00,39.4,30.8,29.88,ENE,68,2.3,2.3,71,0.00,CLR,,0.00,WeatherDisplay:10.37,2013-05-01 16:53:00,
2013-05-01 10:58:00,39.7,31.1,29.88,SE,135,2.3,2.3,71,0.03,RA,,0.03,WeatherDisplay:10.37,2013-05-01 16:58:00,
2013-05-01 11:03:00,40.5,32.1,29.88,North,0,0.0,0.8,72,0.03,RA,,0.03,WeatherDisplay:10.37,2013-05-01 17:03:00,
2013-05-01 11:08:00,41.0,32.7,29.88,ENE,68,2.3,2.3,72,0.03,CLR,,0.03,WeatherDisplay:10.37,2013-05-01 17:08:00,
2013-05-01 11:13:00,41.4,33.0,29.88,WSW,248,0.0,0.9,72,0.03,CLR,,0.03,WeatherDisplay:10.37,2013-05-01 17:13:00,
2013-05-01 11:18:00,41.2,32.1,29.89,SE,135,0.0,0.3,70,0.03,CLR,,0.03,WeatherDisplay:10.37,2013-05-01 17:18:00,
2013-05-01 11:23:00,41.0,32.0,29.89,SSE,158,0.0,0.1,70,0.03,CLR,,0.03,WeatherDisplay:10.37,2013-05-01 17:23:00,
2013-05-01 11:28:00,40.6,31.6,29.89,East,90,2.3,2.3,70,0.03,CLR,,0.03,WeatherDisplay:10.37,2013-05-01 17:28:00,
2013-05-01 11:33:00,41.2,32.1,29.89,WNW,292,0.0,0.5,70,0.03,CLR,,0.03,WeatherDisplay:10.37,2013-05-01 17:33:00,
2013-05-01 11:38:00,41.4,31.6,29.87,NW,315,0.0,0.0,68,0.03,CLR,,0.03,WeatherDisplay:10.37,2013-05-01 17:38:00,
2013-05-01 11:43:00,41.7,32.3,29.87,ENE,68,2.4,2.4,69,0.03,CLR,,0.03,WeatherDisplay:10.37,2013-05-01 17:43:00,
2013-05-01 11:48:00,41.4,31.2,29.87,SW,225,0.0,0.2,67,0.03,CLR,,0.03,WeatherDisplay:10.37,2013-05-01 17:48:00,
2013-05-01 11:53:00,41.4,30.5,29.87,ENE,68,0.0,0.3,65,0.03,CLR,,0.03,WeatherDisplay:10.37,2013-05-01 17:53:00,
2013-05-01 11:58:00,41.2,29.9,29.88,SSW,202,0.0,0.1,64,0.00,CLR,,0.03,WeatherDisplay:10.37,2013-05-01 17:58:00,
2013-05-01 12:03:00,41.2,29.9,29.88,SSE,158,0.0,0.0,64,0.00,CLR,,0.03,WeatherDisplay:10.37,2013-05-01 18:03:00,
2013-05-01 12:08:00,41.5,31.0,29.88,NW,315,0.0,0.3,66,0.00,CLR,,0.03,WeatherDisplay:10.37,2013-05-01 18:08:00,
2013-05-01 12:13:00,42.1,31.5,29.88,WNW,292,2.3,2.3,66,0.00,CLR,,0.03,WeatherDisplay:10.37,2013-05-01 18:13:00,
2013-05-01 12:18:00,42.6,31.7,29.90,WSW,248,1.1,1.1,65,0.00,CLR,,0.03,WeatherDisplay:10.37,2013-05-01 18:18:00,
2013-05-01 12:23:00,42.8,30.7,29.90,West,270,0.0,0.3,62,0.00,CLR,,0.03,WeatherDisplay:10.37,2013-05-01 18:23:00,
2013-05-01 12:28:00,42.8,28.6,29.90,SW,225,2.8,2.8,57,0.03,RA,,0.06,WeatherDisplay:10.37,2013-05-01 18:28:00,
2013-05-01 12:33:00,42.4,28.7,29.90,SSW,202,6.9,6.9,58,0.03,RA,,0.06,WeatherDisplay:10.37,2013-05-01 18:33:00,
2013-05-01 12:38:00,41.5,28.3,29.86,NNW,338,0.0,1.3,59,0.03,,,0.06,WeatherDisplay:10.37,2013-05-01 18:38:00,
2013-05-01 12:43:00,41.9,29.4,29.86,ENE,68,0.0,0.3,61,0.03,CLR,,0.06,WeatherDisplay:10.37,2013-05-01 18:43:00,
2013-05-01 12:48:00,42.1,27.9,29.86,WSW,248,0.0,0.8,57,0.03,CLR,,0.06,WeatherDisplay:10.37,2013-05-01 18:48:00,
2013-05-01 12:53:00,42.6,28.9,29.86,West,270,2.3,2.3,58,0.03,CLR,,0.06,WeatherDisplay:10.37,2013-05-01 18:53:00,
2013-05-01 12:58:00,42.8,28.6,29.88,East,90,0.0,0.7,57,0.03,CLR,,0.06,WeatherDisplay:10.37,2013-05-01 18:58:00,
2013-05-01 13:03:00,43.0,29.2,29.88,SSW,202,3.5,3.5,58,0.03,CLR,,0.06,WeatherDisplay:10.37,2013-05-01 19:03:00,
2013-05-01 13:08:00,43.7,30.7,29.88,ENE,68,3.5,3.5,60,0.03,CLR,,0.06,WeatherDisplay:10.37,2013-05-01 19:08:00,
2013-05-01 13:13:00,44.8,31.7,29.88,East,90,5.8,5.8,60,0.03,CLR,,0.06,WeatherDisplay:10.37,2013-05-01 19:13:00,
2013-05-01 13:18:00,44.2,27.2,29.89,WSW,248,4.6,4.6,51,0.03,CLR,,0.06,WeatherDisplay:10.37,2013-05-01 19:18:00,
2013-05-01 13:23:00,44.2,27.7,29.89,WSW,248,2.3,2.8,52,0.03,CLR,,0.06,WeatherDisplay:10.37,2013-05-01 19:23:00,
2013-05-01 13:28:00,44.1,26.6,29.89,South,180,5.8,5.8,50,0.00,CLR,,0.06,WeatherDisplay:10.37,2013-05-01 19:28:00,
2013-05-01 13:33:00,44.1,25.6,29.89,WNW,292,4.6,4.6,48,0.00,CLR,,0.06,WeatherDisplay:10.37,2013-05-01 19:33:00,
2013-05-01 13:38:00,45.0,28.4,29.90,SSE,158,5.8,5.8,52,0.00,CLR,,0.06,WeatherDisplay:10.37,2013-05-01 19:38:00,
2013-05-01 13:43:00,45.3,27.8,29.90,ESE,112,5.8,5.8,50,0.00,CLR,,0.06,WeatherDisplay:10.37,2013-05-01 19:43:00,
2013-05-01 13:48:00,44.4,25.9,29.90,WSW,248,2.3,2.3,48,0.00,CLR,,0.06,WeatherDisplay:10.37,2013-05-01 19:48:00,
2013-05-01 13:53:00,44.1,26.1,29.90,SE,135,3.5,3.5,49,0.00,CLR,,0.06,WeatherDisplay:10.37,2013-05-01 19:53:00,
2013-05-01 13:58:00,43.3,25.4,29.87,SSE,158,0.0,1.0,49,0.00,CLR,,0.06,WeatherDisplay:10.37,2013-05-01 19:58:00,
2013-05-01 14:03:00,42.6,25.3,29.87,SW,225,0.0,0.6,50,0.00,CLR,,0.06,WeatherDisplay:10.37,2013-05-01 20:03:00,
2013-05-01 14:08:00,42.6,25.3,29.87,SE,135,5.8,5.8,50,0.00,CLR,,0.06,WeatherDisplay:10.37,2013-05-01 20:08:00,
2013-05-01 14:13:00,43.3,25.4,29.87,SW,225,0.0,0.9,49,0.00,CLR,,0.06,WeatherDisplay:10.37,2013-05-01 20:13:00,
2013-05-01 14:18:00,43.5,25.1,29.87,SE,135,1.7,1.7,48,0.00,CLR,,0.06,WeatherDisplay:10.37,2013-05-01 20:18:00,
2013-05-01 14:23:00,43.5,22.5,29.87,WSW,248,6.9,6.9,43,0.00,CLR,,0.06,WeatherDisplay:10.37,2013-05-01 20:23:00,
2013-05-01 14:28:00,43.7,22.6,29.87,WNW,292,0.0,2.4,43,0.00,CLR,,0.06,WeatherDisplay:10.37,2013-05-01 20:28:00,
2013-05-01 14:33:00,43.7,24.8,29.87,ENE,68,3.5,3.5,47,0.00,CLR,,0.06,WeatherDisplay:10.37,2013-05-01 20:33:00,
2013-05-01 14:38:00,43.5,25.6,29.90,WSW,248,2.3,2.3,49,0.00,CLR,,0.06,WeatherDisplay:10.37,2013-05-01 20:38:00,
2013-05-01 14:43:00,43.3,24.9,29.90,SSW,202,2.3,2.3,48,0.00,CLR,,0.06,WeatherDisplay:10.37,2013-05-01 20:43:00,
2013-05-01 14:48:00,43.0,24.1,29.90,WSW,248,0.0,0.5,47,0.00,CLR,,0.06,WeatherDisplay:10.37,2013-05-01 20:48:00,
2013-05-01 14:53:00,43.0,23.1,29.90,SSW,202,2.3,2.3,45,0.00,CLR,,0.06,WeatherDisplay:10.37,2013-05-01 20:53:00,
2013-05-01 14:58:00,42.8,22.9,29.88,West,270,0.0,0.3,45,0.00,CLR,,0.06,WeatherDisplay:10.37,2013-05-01 20:58:00,
2013-05-01 15:03:00,43.0,23.6,29.88,SE,135,3.5,3.5,46,0.00,CLR,,0.06,WeatherDisplay:10.37,2013-05-01 21:03:00,
2013-05-01 15:08:00,43.5,25.1,29.88,SE,135,3.5,3.5,48,0.00,CLR,,0.06,WeatherDisplay:10.37,2013-05-01 21:08:00,
2013-05-01 15:13:00,43.7,25.3,29.88,SSW,202,6.9,6.9,48,0.00,CLR,,0.06,WeatherDisplay:10.37,2013-05-01 21:13:00,
2013-05-01 15:18:00,44.8,26.8,29.89,SE,135,6.9,6.9,49,0.00,CLR,,0.06,WeatherDisplay:10.37,2013-05-01 21:18:00,
2013-05-01 15:23:00,45.1,27.1,29.89,ENE,68,9.2,9.2,49,0.00,CLR,,0.06,WeatherDisplay:10.37,2013-05-01 21:23:00,
2013-05-01 15:28:00,45.7,26.6,29.89,SE,135,5.3,5.3,47,0.00,CLR,,0.06,WeatherDisplay:10.37,2013-05-01 21:28:00,
2013-05-01 15:33:00,45.7,26.6,29.89,SSW,202,2.3,3.0,47,0.00,CLR,,0.06,WeatherDisplay:10.37,2013-05-01 21:33:00,
2013-05-01 15:38:00,44.8,25.2,29.89,SSE,158,5.8,5.8,46,0.00,CLR,,0.06,WeatherDisplay:10.37,2013-05-01 21:38:00,
2013-05-01 15:43:00,44.4,23.3,29.89,SW,225,4.6,4.6,43,0.00,CLR,,0.06,WeatherDisplay:10.37,2013-05-01 21:43:00,
2013-05-01 15:48:00,44.2,24.2,29.89,WSW,248,2.3,2.3,45,0.00,CLR,,0.06,WeatherDisplay:10.37,2013-05-01 21:48:00,
2013-05-01 15:53:00,44.4,24.9,29.89,SW,225,0.0,1.3,46,0.00,CLR,,0.06,WeatherDisplay:10.37,2013-05-01 21:53:00,
2013-05-01 15:58:00,44.8,25.2,29.88,NW,315,0.0,1.0,46,0.00,CLR,,0.06,WeatherDisplay:10.37,2013-05-01 21:58:00,
2013-05-01 16:03:00,44.6,24.5,29.88,WNW,292,3.5,3.5,45,0.00,CLR,,0.06,WeatherDisplay:10.37,2013-05-01 22:03:00,
2013-05-01 16:08:00,45.0,25.4,29.88,ESE,112,3.0,3.0,46,0.00,CLR,,0.06,WeatherDisplay:10.37,2013-05-01 22:08:00,
2013-05-01 16:13:00,45.7,26.1,29.88,WSW,248,2.3,2.3,46,0.00,CLR,,0.06,WeatherDisplay:10.37,2013-05-01 22:13:00,
2013-05-01 16:18:00,45.7,25.5,29.88,WSW,248,2.3,2.3,45,0.00,CLR,,0.06,WeatherDisplay:10.37,2013-05-01 22:18:00,
2013-05-01 16:23:00,46.2,26.0,29.88,SW,225,6.9,6.9,45,0.00,CLR,,0.06,WeatherDisplay:10.37,2013-05-01 22:23:00,
2013-05-01 16:28:00,46.6,25.3,29.88,SW,225,10.4,10.4,43,0.00,CLR,,0.06,WeatherDisplay:10.37,2013-05-01 22:28:00,
2013-05-01 16:33:00,46.4,25.6,29.88,SSE,158,5.8,5.8,44,0.00,CLR,,0.06,WeatherDisplay:10.37,2013-05-01 22:33:00,
2013-05-01 16:38:00,46.6,24.7,29.89,SSW,202,4.9,4.9,42,0.00,CLR,,0.06,WeatherDisplay:10.37,2013-05-01 22:38:00,
2013-05-01 16:43:00,46.9,25.6,29.89,NE,45,9.2,9.2,43,0.00,CLR,,0.06,WeatherDisplay:10.37,2013-05-01 22:43:00,
2013-05-01 16:48:00,47.3,25.9,29.89,SSE,158,2.3,2.5,43,0.00,CLR,,0.06,WeatherDisplay:10.37,2013-05-01 22:48:00,
2013-05-01 16:53:00,47.1,25.7,29.89,SW,225,6.9,6.9,43,0.00,CLR,,0.06,WeatherDisplay:10.37,2013-05-01 22:53:00,
2013-05-01 16:58:00,46.4,23.9,29.89,West,270,2.6,3.2,41,0.00,CLR,,0.06,WeatherDisplay:10.37,2013-05-01 22:58:00,
2013-05-01 17:03:00,46.2,24.4,29.89,SW,225,2.3,2.3,42,0.00,CLR,,0.06,WeatherDisplay:10.37,2013-05-01 23:03:00,
2013-05-01 17:08:00,46.4,24.5,29.89,SSE,158,0.0,1.4,42,0.00,CLR,,0.06,WeatherDisplay:10.37,2013-05-01 23:08:00,
2013-05-01 17:13:00,46.6,25.3,29.89,WSW,248,0.0,0.7,43,0.00,CLR,,0.06,WeatherDisplay:10.37,2013-05-01 23:13:00,
2013-05-01 17:18:00,46.9,25.0,29.89,SSW,202,9.1,9.1,42,0.00,CLR,,0.06,WeatherDisplay:10.37,2013-05-01 23:18:00,
2013-05-01 17:23:00,46.9,24.4,29.89,WSW,248,4.6,4.6,41,0.00,CLR,,0.06,WeatherDisplay:10.37,2013-05-01 23:23:00,
2013-05-01 17:28:00,46.9,23.2,29.89,WSW,248,4.6,4.6,39,0.00,CLR,,0.06,WeatherDisplay:10.37,2013-05-01 23:28:00,
2013-05-01 17:33:00,46.8,23.1,29.89,South,180,5.6,5.6,39,0.00,CLR,,0.06,WeatherDisplay:10.37,2013-05-01 23:33:00,
2013-05-01 17:38:00,46.8,23.7,29.90,ENE,68,4.6,4.6,40,0.00,CLR,,0.06,WeatherDisplay:10.37,2013-05-01 23:38:00,
2013-05-01 17:43:00,46.9,23.8,29.90,South,180,8.2,8.2,40,0.00,CLR,,0.06,WeatherDisplay:10.37,2013-05-01 23:43:00,
2013-05-01 17:48:00,46.4,22.8,29.90,WSW,248,4.6,4.6,39,0.00,CLR,,0.06,WeatherDisplay:10.37,2013-05-01 23:48:00,
2013-05-01 17:53:00,46.2,21.3,29.90,SSW,202,6.9,6.9,37,0.00,CLR,,0.06,WeatherDisplay:10.37,2013-05-01 23:53:00,
2013-05-01 17:58:00,45.7,21.5,29.90,SW,225,5.8,5.8,38,0.00,CLR,,0.06,WeatherDisplay:10.37,2013-05-01 23:58:00,
2013-05-01 18:03:00,45.5,21.9,29.90,ENE,68,6.9,6.9,39,0.00,CLR,,0.06,WeatherDisplay:10.37,2013-05-02 00:03:00,
2013-05-01 18:08:00,45.0,22.1,29.90,SSW,202,3.5,3.5,40,0.00,CLR,,0.06,WeatherDisplay:10.37,2013-05-02 00:08:00,
2013-05-01 18:13:00,44.8,22.5,29.90,NNE,22,4.6,4.6,41,0.00,CLR,,0.06,WeatherDisplay:10.37,2013-05-02 00:13:00,
2013-05-01 18:18:00,45.0,21.5,29.91,SW,225,0.0,1.3,39,0.00,CLR,,0.06,WeatherDisplay:10.37,2013-05-02 00:18:00,
2013-05-01 18:23:00,45.0,21.5,29.91,WSW,248,0.0,0.3,39,0.00,CLR,,0.06,WeatherDisplay:10.37,2013-05-02 00:23:00,
2013-05-01 18:28:00,45.0,20.8,29.91,WSW,248,0.0,0.0,38,0.00,CLR,,0.06,WeatherDisplay:10.37,2013-05-02 00:28:00,
2013-05-01 18:33:00,45.3,21.8,29.91,SE,135,6.9,6.9,39,0.00,CLR,,0.06,WeatherDisplay:10.37,2013-05-02 00:33:00,
2013-05-01 18:38:00,45.7,22.7,29.91,SSW,202,3.5,3.5,40,0.00,CLR,,0.06,WeatherDisplay:10.37,2013-05-02 00:38:00,
2013-05-01 18:43:00,45.7,21.5,29.91,ENE,68,2.5,3.3,38,0.00,CLR,,0.06,WeatherDisplay:10.37,2013-05-02 00:43:00,
2013-05-01 18:48:00,45.7,22.1,29.91,SW,225,3.3,3.3,39,0.00,CLR,,0.06,WeatherDisplay:10.37,2013-05-02 00:48:00,
2013-05-01 18:53:00,45.9,22.3,29.91,WSW,248,0.0,2.0,39,0.00,CLR,,0.06,WeatherDisplay:10.37,2013-05-02 00:53:00,
2013-05-01 18:58:00,45.5,22.5,29.87,SW,225,0.0,0.5,40,0.00,CLR,,0.06,WeatherDisplay:10.37,2013-05-02 00:58:00,
2013-05-01 19:03:00,45.7,22.7,29.87,SW,225,1.1,1.1,40,0.00,CLR,,0.06,WeatherDisplay:10.37,2013-05-02 01:03:00,
2013-05-01 19:08:00,45.9,23.5,29.87,SW,225,0.0,0.2,41,0.00,CLR,,0.06,WeatherDisplay:10.37,2013-05-02 01:08:00,
2013-05-01 19:13:00,45.9,22.9,29.87,SE,135,0.0,0.0,40,0.00,CLR,,0.06,WeatherDisplay:10.37,2013-05-02 01:13:00,
2013-05-01 19:18:00,45.7,22.7,29.90,WSW,248,2.0,2.0,40,0.00,CLR,,0.06,WeatherDisplay:10.37,2013-05-02 01:18:00,
2013-05-01 19:23:00,45.7,23.3,29.90,SW,225,4.6,4.6,41,0.00,CLR,,0.06,WeatherDisplay:10.37,2013-05-02 01:23:00,
2013-05-01 19:28:00,45.7,22.7,29.90,West,270,1.1,1.1,40,0.00,CLR,,0.06,WeatherDisplay:10.37,2013-05-02 01:28:00,
2013-05-01 19:33:00,45.7,22.1,29.90,East,90,3.5,3.5,39,0.00,CLR,,0.06,WeatherDisplay:10.37,2013-05-02 01:33:00,
2013-05-01 19:38:00,45.5,22.5,29.88,SSW,202,5.8,5.8,40,0.00,CLR,,0.06,WeatherDisplay:10.37,2013-05-02 01:38:00,
2013-05-01 19:43:00,45.5,22.5,29.88,SSE,158,2.3,2.3,40,0.00,CLR,,0.06,WeatherDisplay:10.37,2013-05-02 01:43:00,
2013-05-01 19:48:00,45.1,22.2,29.88,SW,225,0.0,0.6,40,0.00,CLR,,0.06,WeatherDisplay:10.37,2013-05-02 01:48:00,
2013-05-01 19:53:00,45.1,22.2,29.88,WSW,248,0.0,0.6,40,0.00,CLR,,0.06,WeatherDisplay:10.37,2013-05-02 01:53:00,
2013-05-01 19:58:00,44.4,21.6,29.86,SE,135,1.7,1.7,40,0.00,CLR,,0.06,WeatherDisplay:10.37,2013-05-02 01:58:00,
2013-05-01 20:03:00,44.1,21.3,29.86,SSE,158,2.3,2.3,40,0.00,CLR,,0.06,WeatherDisplay:10.37,2013-05-02 02:03:00,
2013-05-01 20:08:00,43.7,20.9,29.86,SSW,202,0.0,1.1,40,0.00,CLR,,0.06,WeatherDisplay:10.37,2013-05-02 02:08:00,
2013-05-01 20:13:00,43.5,21.3,29.86,NNE,22,2.3,2.3,41,0.00,CLR,,0.06,WeatherDisplay:10.37,2013-05-02 02:13:00,
2013-05-01 20:18:00,43.0,21.4,29.86,ESE,112,0.0,1.1,42,0.00,CLR,,0.06,WeatherDisplay:10.37,2013-05-02 02:18:00,
2013-05-01 20:23:00,43.0,22.0,29.86,ENE,68,0.0,0.7,43,0.00,CLR,,0.06,WeatherDisplay:10.37,2013-05-02 02:23:00,
2013-05-01 20:28:00,42.1,21.2,29.86,ENE,68,0.0,0.3,43,0.00,CLR,,0.06,WeatherDisplay:10.37,2013-05-02 02:28:00,
2013-05-01 20:33:00,41.5,21.2,29.86,ENE,68,0.0,0.0,44,0.00,CLR,,0.06,WeatherDisplay:10.37,2013-05-02 02:33:00,
2013-05-01 20:38:00,40.8,20.6,29.86,ESE,112,0.0,0.0,44,0.00,CLR,,0.06,WeatherDisplay:10.37,2013-05-02 02:38:00,
2013-05-01 20:43:00,40.5,20.2,29.86,SE,135,0.0,0.0,44,0.00,CLR,,0.06,WeatherDisplay:10.37,2013-05-02 02:43:00,
2013-05-01 20:48:00,39.7,20.1,29.86,North,0,0.0,0.0,45,0.00,CLR,,0.06,WeatherDisplay:10.37,2013-05-02 02:48:00,
2013-05-01 20:53:00,39.2,19.6,29.86,North,0,0.0,0.0,45,0.00,CLR,,0.06,WeatherDisplay:10.37,2013-05-02 02:53:00,
2013-05-01 20:58:00,38.7,19.6,29.87,SSE,158,0.0,0.0,46,0.00,CLR,,0.06,WeatherDisplay:10.37,2013-05-02 02:58:00,
2013-05-01 21:03:00,38.1,19.1,29.87,SSW,202,0.0,0.0,46,0.00,CLR,,0.06,WeatherDisplay:10.37,2013-05-02 03:03:00,
2013-05-01 21:08:00,37.6,19.1,29.87,NE,45,0.0,0.0,47,0.00,CLR,,0.06,WeatherDisplay:10.37,2013-05-02 03:08:00,
2013-05-01 21:13:00,37.0,18.7,29.87,NE,45,0.0,0.0,47,0.00,CLR,,0.06,WeatherDisplay:10.37,2013-05-02 03:13:00,
2013-05-01 21:18:00,36.3,18.0,29.88,North,0,0.0,0.0,47,0.00,CLR,,0.06,WeatherDisplay:10.37,2013-05-02 03:18:00,
2013-05-01 21:23:00,36.0,17.7,29.88,NE,45,0.0,0.0,47,0.00,CLR,,0.06,WeatherDisplay:10.37,2013-05-02 03:23:00,
2013-05-01 21:28:00,35.4,17.7,29.88,NE,45,0.0,0.0,48,0.00,CLR,,0.06,WeatherDisplay:10.37,2013-05-02 03:28:00,
2013-05-01 21:33:00,35.1,17.3,29.88,NE,45,0.0,0.0,48,0.00,CLR,,0.06,WeatherDisplay:10.37,2013-05-02 03:33:00,
2013-05-01 21:38:00,34.7,17.0,29.89,NE,45,0.0,0.0,48,0.00,CLR,,0.06,WeatherDisplay:10.37,2013-05-02 03:38:00,
2013-05-01 21:43:00,34.2,16.5,29.89,NE,45,0.0,0.0,48,0.00,CLR,,0.06,WeatherDisplay:10.37,2013-05-02 03:43:00,
2013-05-01 21:48:00,33.4,16.3,29.89,ENE,68,0.0,0.0,49,0.00,CLR,,0.06,WeatherDisplay:10.37,2013-05-02 03:48:00,
2013-05-01 21:53:00,33.3,16.1,29.89,ENE,68,0.0,0.0,49,0.00,CLR,,0.06,WeatherDisplay:10.37,2013-05-02 03:53:00,
2013-05-01 21:58:00,32.9,15.8,29.90,NE,45,0.0,0.0,49,0.00,CLR,,0.06,WeatherDisplay:10.37,2013-05-02 03:58:00,
2013-05-01 22:01:00,32.7,15.6,29.90,NNE,22,0.0,0.0,49,0.00,CLR,,0.06,WeatherDisplay:10.37,2013-05-02 04:01:00,